Madison, MN

1:27 PM CST on February 25, 2017 (GMT -0600)
Madison-Lac Qui Parle County

Weather History for KDXX - November, 2012

Change the Weather History Date:

Sunday, November 18, 2012

  Actual Average (KAQP) Record (KAQP)
Temperature  
Mean Temperature 46 °F -  
Max Temperature 62 °F 35 °F 62 °F (2012)
Min Temperature 30 °F 19 °F 3 °F (1996)
Degree Days  
Heating Degree Days 19    
Moisture  
Dew Point 33 °F    
Average Humidity 64    
Maximum Humidity 93    
Minimum Humidity 34    
Precipitation  
Precipitation 0.00 in - - ()
Sea Level Pressure  
Sea Level Pressure 29.98 in    
Wind  
Wind Speed 9 mph (SSE)    
Max Wind Speed 17 mph    
Max Gust Speed 20 mph    
Visibility 10 miles    
Events      
Averages and records for this station are not official NWS values.
T = Trace of Precipitation, MM = Missing Value Source: NWS Daily Summary

Daily Weather History Graph

Daily Weather History Graph

Search for Another Location

Airport or City:

Trip Planner

Search our weather history database for the weather conditions in past years. The results will help you decide how hot, cold, wet, or windy it might be!

Date:

Astronomy

Nov. 18, 2012 Rise Set
Actual Time 7:27 AM CST 4:52 PM CST
Civil Twilight 6:54 AM CST 5:24 PM CST
Nautical Twilight 6:19 AM CST 6:00 PM CST
Astronomical Twilight 5:44 AM CST 6:35 PM CST
Moon 11:51 AM CST (11/18) 10:17 PM CST (11/18)
Length of Visible Light 10h 29m
Length of Day
9h 25m
Waxing Crescent, 30% of the Moon is Illuminated
Nov 18
Waxing Crescent
Nov 20
First Quarter
Nov 28
Full
Dec 6
Last Quarter
Dec 13
New

Hourly Weather History & Observations

Time (CST) Temp. Windchill Dew Point Humidity Pressure Visibility Wind Dir Wind Speed Gust Speed Precip Events Conditions
12:13 AM 41.0 °F 34.7 °F 33.8 °F 76% 30.02 in 10.0 mi SSE 10.4 mph - N/A   Clear
12:34 AM 41.0 °F 35.2 °F 33.8 °F 76% 30.02 in 10.0 mi SE 9.2 mph - N/A   Clear
12:54 AM 41.0 °F 35.2 °F 33.8 °F 76% 30.02 in 10.0 mi SSE 9.2 mph - N/A   Clear
1:13 AM 39.2 °F 33.6 °F 32.0 °F 75% 30.02 in 10.0 mi SSE 8.1 mph - N/A   Clear
1:34 AM 39.2 °F 33.0 °F 32.0 °F 75% 30.02 in 10.0 mi SSE 9.2 mph - N/A   Clear
1:54 AM 39.2 °F 33.6 °F 32.0 °F 75% 30.02 in 10.0 mi SSE 8.1 mph - N/A   Clear
2:13 AM 41.0 °F 34.3 °F 33.8 °F 76% 30.02 in 10.0 mi SSE 11.5 mph - N/A   Clear
2:34 AM 41.0 °F 35.2 °F 33.8 °F 76% 30.02 in 10.0 mi SSE 9.2 mph - N/A   Clear
2:54 AM 39.2 °F 33.0 °F 32.0 °F 75% 30.02 in 10.0 mi SSE 9.2 mph - N/A   Clear
3:13 AM 39.2 °F 33.0 °F 32.0 °F 75% 30.02 in 10.0 mi SSE 9.2 mph - N/A   Clear
3:34 AM 37.4 °F 31.4 °F 32.0 °F 81% 30.02 in 10.0 mi SSE 8.1 mph - N/A   Clear
3:54 AM 35.6 °F 29.9 °F 30.2 °F 81% 30.01 in 10.0 mi SSE 6.9 mph - N/A   Clear
4:13 AM 35.6 °F 30.7 °F 30.2 °F 81% 30.01 in 10.0 mi SSE 5.8 mph - N/A   Clear
4:34 AM 33.8 °F 28.6 °F 30.2 °F 87% 30.01 in 10.0 mi SE 5.8 mph - N/A   Clear
4:54 AM 35.6 °F 29.2 °F 30.2 °F 81% 30.01 in 10.0 mi SSE 8.1 mph - N/A   Clear
5:13 AM 35.6 °F 29.9 °F 30.2 °F 81% 30.01 in 10.0 mi SSE 6.9 mph - N/A   Clear
5:34 AM 32.0 °F 27.5 °F 28.4 °F 87% 30.01 in 10.0 mi SSE 4.6 mph - N/A   Clear
5:54 AM 33.8 °F 28.6 °F 28.4 °F 81% 30.01 in 10.0 mi SSE 5.8 mph - N/A   Clear
6:13 AM 33.8 °F 27.0 °F 28.4 °F 81% 30.01 in 10.0 mi SSE 8.1 mph - N/A   Clear
6:34 AM 30.2 °F 23.4 °F 28.4 °F 93% 30.00 in 10.0 mi SSE 6.9 mph - N/A   Clear
6:53 AM 33.8 °F 26.4 °F 30.2 °F 87% 30.00 in 10.0 mi South 9.2 mph - N/A   Clear
7:14 AM 33.8 °F 27.7 °F 28.4 °F 81% 30.00 in 10.0 mi South 6.9 mph - N/A   Clear
7:34 AM 35.6 °F 28.0 °F 30.2 °F 81% 30.00 in 10.0 mi SSW 10.4 mph - N/A   Clear
7:53 AM 35.6 °F 29.9 °F 30.2 °F 81% 30.00 in 10.0 mi South 6.9 mph - N/A   Clear
8:14 AM 37.4 °F 33.8 °F 32.0 °F 81% 30.01 in 10.0 mi South 4.6 mph - N/A   Clear
8:34 AM 37.4 °F 32.8 °F 30.2 °F 75% 30.01 in 10.0 mi SE 5.8 mph - N/A   Clear
8:53 AM 39.2 °F 35.9 °F 32.0 °F 75% 30.01 in 10.0 mi SE 4.6 mph - N/A   Clear
9:14 AM 41.0 °F 39.0 °F 33.8 °F 76% 30.01 in 10.0 mi SSE 3.5 mph - N/A   Clear
9:34 AM 42.8 °F 39.3 °F 33.8 °F 70% 30.01 in 10.0 mi South 5.8 mph - N/A   Clear
9:53 AM 44.6 °F 40.7 °F 33.8 °F 66% 30.01 in 10.0 mi South 6.9 mph - N/A   Clear
10:14 AM 48.2 °F - 33.8 °F 58% 30.01 in 10.0 mi South 8.1 mph - N/A   Clear
10:34 AM 48.2 °F - 33.8 °F 58% 30.01 in 10.0 mi South 10.4 mph - N/A   Clear
10:53 AM 51.8 °F - 33.8 °F 50% 30.00 in 10.0 mi South 9.2 mph - N/A   Clear
11:14 AM 51.8 °F - 33.8 °F 50% 29.99 in 10.0 mi South 8.1 mph - N/A   Clear
11:33 AM 55.4 °F - 33.8 °F 44% 29.99 in 10.0 mi South 9.2 mph - N/A   Clear
11:54 AM 55.4 °F - 33.8 °F 44% 29.98 in 10.0 mi South 9.2 mph - N/A   Clear
12:14 PM 57.2 °F - 33.8 °F 41% 29.97 in 10.0 mi South 6.9 mph - N/A   Clear
12:33 PM 59.0 °F - 33.8 °F 39% 29.97 in 10.0 mi South 9.2 mph - N/A   Clear
12:54 PM 60.8 °F - 33.8 °F 36% 29.96 in 10.0 mi South 9.2 mph - N/A   Clear
1:14 PM 60.8 °F - 33.8 °F 36% 29.96 in 10.0 mi South 12.7 mph - N/A   Clear
1:33 PM 62.6 °F - 33.8 °F 34% 29.95 in 10.0 mi South 11.5 mph - N/A   Clear
1:54 PM 62.6 °F - 33.8 °F 34% 29.95 in 10.0 mi South 12.7 mph - N/A   Clear
2:14 PM 62.6 °F - 33.8 °F 34% 29.94 in 10.0 mi SSE 10.4 mph - N/A   Clear
2:33 PM 60.8 °F - 35.6 °F 39% 29.94 in 10.0 mi SE 11.5 mph - N/A   Clear
2:54 PM 62.6 °F - 35.6 °F 37% 29.94 in 10.0 mi SSE 15.0 mph 19.6 mph N/A   Clear
3:14 PM 60.8 °F - 35.6 °F 39% 29.94 in 10.0 mi SSE 17.3 mph - N/A   Clear
3:33 PM 60.8 °F - 35.6 °F 39% 29.94 in 10.0 mi SSE 16.1 mph - N/A   Clear
3:54 PM 59.0 °F - 35.6 °F 42% 29.94 in 10.0 mi SSE 16.1 mph - N/A   Clear
4:14 PM 57.2 °F - 35.6 °F 44% 29.95 in 10.0 mi SSE 12.7 mph - N/A   Clear
4:33 PM 55.4 °F - 35.6 °F 47% 29.95 in 10.0 mi SSE 13.8 mph - N/A   Clear
4:54 PM 53.6 °F - 35.6 °F 51% 29.95 in 10.0 mi SSE 10.4 mph - N/A   Clear
5:13 PM 53.6 °F - 35.6 °F 51% 29.95 in 10.0 mi SE 10.4 mph - N/A   Clear
5:34 PM 51.8 °F - 35.6 °F 54% 29.95 in 10.0 mi SSE 10.4 mph - N/A   Clear
5:53 PM 48.2 °F - 35.6 °F 62% 29.96 in 10.0 mi SSE 10.4 mph - N/A   Clear
6:14 PM 48.2 °F - 35.6 °F 62% 29.97 in 10.0 mi SSE 9.2 mph - N/A   Clear
6:34 PM 46.4 °F 42.9 °F 35.6 °F 66% 29.97 in 10.0 mi ESE 6.9 mph - N/A   Clear
6:53 PM 44.6 °F 39.2 °F 35.6 °F 71% 29.97 in 10.0 mi SE 10.4 mph - N/A   Clear
7:14 PM 46.4 °F 42.4 °F 35.6 °F 66% 29.97 in 10.0 mi SE 8.1 mph - N/A   Clear
7:34 PM 44.6 °F 39.7 °F 35.6 °F 71% 29.97 in 10.0 mi SE 9.2 mph - N/A   Clear
7:53 PM 44.6 °F 39.2 °F 33.8 °F 66% 29.96 in 10.0 mi SE 10.4 mph - N/A   Clear
8:14 PM 44.6 °F 40.2 °F 33.8 °F 66% 29.96 in 10.0 mi SE 8.1 mph - N/A   Clear
8:34 PM 44.6 °F 39.7 °F 33.8 °F 66% 29.96 in 10.0 mi SSE 9.2 mph - N/A   Clear
8:53 PM 44.6 °F 39.2 °F 33.8 °F 66% 29.96 in 10.0 mi SSE 10.4 mph - N/A   Clear
9:14 PM 42.8 °F 37.0 °F 33.8 °F 70% 29.96 in 10.0 mi SE 10.4 mph - N/A   Clear
9:34 PM 42.8 °F 37.0 °F 33.8 °F 70% 29.96 in 10.0 mi SSE 10.4 mph - N/A   Clear
9:53 PM 44.6 °F 39.2 °F 33.8 °F 66% 29.96 in 10.0 mi South 10.4 mph - N/A   Clear
10:34 PM 44.6 °F 39.2 °F 33.8 °F 66% 29.95 in 10.0 mi SSE 10.4 mph - N/A   Clear
11:13 PM 46.4 °F 41.1 °F 33.8 °F 62% 29.95 in 10.0 mi South 11.5 mph - N/A   Clear
11:34 PM 46.4 °F 41.5 °F 33.8 °F 62% 29.94 in 10.0 mi South 10.4 mph - N/A   Clear
11:54 PM 46.4 °F 42.4 °F 33.8 °F 62% 29.95 in 10.0 mi SSE 8.1 mph - N/A   Clear